Weather History for Worland, WY

Change the Weather History Date:

Tuesday, September 24, 2013

  Actual Average Record
Temperature  
Mean Temperature 60 °F 54 °F  
Max Temperature 81 °F 70 °F 89 °F (2014)
Min Temperature 39 °F 39 °F 24 °F (1984)
Degree Days  
Heating Degree Days 5 11  
Month to date heating degree days 55 148  
Since 1 July heating degree days 55 184  
Cooling Degree Days 0 0  
Month to date cooling degree days 91 28  
Year to date cooling degree days 852 534  
Growing Degree Days 12 (Base 50)    
Moisture  
Dew Point 30 °F    
Average Humidity 40    
Maximum Humidity 67    
Minimum Humidity 13    
Precipitation  
Precipitation 0.00 in 0.03 in 0.51 in (1986)
Month to date precipitation 0.91 0.65  
Year to date precipitation 4.12 6.10  
Sea Level Pressure  
Sea Level Pressure 29.79 in    
Wind  
Wind Speed 8 mph (South)    
Max Wind Speed 23 mph    
Max Gust Speed 29 mph    
Visibility 10 miles    
Events      
T = Trace of Precipitation, MM = Missing Value Source: NWS Daily Summary

Daily Weather History Graph

Daily Weather History Graph

Search for Another Location

Airport:

Trip Planner

Search our weather history database for the weather conditions in past years. The results will help you decide how hot, cold, wet, or windy it might be!

Date:

Astronomy

Sep. 24, 2013 Rise Set
Actual Time 7:01 AM MDT 7:04 PM MDT
Civil Twilight 6:32 AM MDT 7:33 PM MDT
Nautical Twilight 5:59 AM MDT 8:07 PM MDT
Astronomical Twilight 5:24 AM MDT 8:41 PM MDT
Moon 10:14 PM MDT (9/24) 12:29 PM MDT (9/24)
Length of Visible Light 13h 00m
Length of Day
12h 03m
Waning Gibbous, 72% of the Moon is Illuminated
Sep 24
Waning Gibbous
Sep 26
Last Quarter
Oct 4
New
Oct 11
First Quarter
Oct 18
Full

Hourly Weather History & Observations

Time (MDT) Temp. Windchill Dew Point Humidity Pressure Visibility Wind Dir Wind Speed Gust Speed Precip Events Conditions
12:53 AM 48.9 °F - 30.0 °F 48% 29.90 in 10.0 mi Calm Calm - N/A   Clear
1:53 AM 43.0 °F - 32.0 °F 65% 29.93 in 10.0 mi Calm Calm - N/A   Clear
2:53 AM 44.1 °F 40.1 °F 30.0 °F 58% 29.93 in 10.0 mi South 6.9 mph - N/A   Clear
3:53 AM 45.0 °F 40.1 °F 30.0 °F 56% 29.94 in 10.0 mi South 9.2 mph - N/A   Clear
4:53 AM 44.1 °F 41.5 °F 30.0 °F 58% 29.94 in 10.0 mi South 4.6 mph - N/A   Clear
5:53 AM 43.0 °F 37.2 °F 30.0 °F 60% 29.94 in 10.0 mi South 10.4 mph - N/A   Clear
6:53 AM 44.1 °F 40.8 °F 30.0 °F 58% 29.95 in 10.0 mi South 5.8 mph - N/A   Clear
7:53 AM 44.1 °F 41.5 °F 30.9 °F 60% 29.99 in 10.0 mi West 4.6 mph - N/A   Clear
8:53 AM 48.9 °F - 32.0 °F 52% 29.96 in 10.0 mi WSW 5.8 mph - N/A   Clear
9:53 AM 55.0 °F - 32.0 °F 42% 29.95 in 10.0 mi Calm Calm - N/A   Clear
10:53 AM 64.0 °F - 36.0 °F 35% 29.90 in 10.0 mi WNW 4.6 mph - N/A   Clear
11:53 AM 72.0 °F - 30.9 °F 22% 29.84 in 10.0 mi SSE 8.1 mph - N/A   Clear
12:53 PM 73.9 °F - 28.9 °F 19% 29.79 in 10.0 mi SSE 16.1 mph 21.9 mph N/A   Clear
1:53 PM 77.0 °F - 26.1 °F 15% 29.75 in 10.0 mi SE 16.1 mph 21.9 mph N/A   Clear
2:53 PM 78.1 °F - 25.0 °F 14% 29.68 in 10.0 mi South 13.8 mph 23.0 mph N/A   Clear
3:21 PM 80.6 °F - 24.8 °F 13% 29.74 in 10.0 mi South 20.7 mph 25.3 mph N/A   Clear
3:53 PM 80.1 °F - 27.0 °F 14% 29.63 in 10.0 mi South 18.4 mph 24.2 mph N/A   Clear
4:53 PM 80.1 °F - 26.1 °F 14% 29.60 in 10.0 mi SSW 12.7 mph 24.2 mph N/A   Clear
5:53 PM 78.1 °F - 26.1 °F 15% 29.60 in 10.0 mi SW 13.8 mph - N/A   Clear
6:53 PM 70.0 °F - 28.9 °F 22% 29.61 in 8.0 mi SSW 6.9 mph - N/A   Clear
7:53 PM 66.0 °F - 28.9 °F 25% 29.62 in 10.0 mi SSW 4.6 mph - N/A   Clear
8:53 PM 62.1 °F - 37.0 °F 39% 29.63 in 10.0 mi NE 4.6 mph - N/A   Clear
9:53 PM 63.0 °F - 35.1 °F 35% 29.64 in 10.0 mi East 6.9 mph - N/A   Clear
10:53 PM 57.9 °F - 36.0 °F 44% 29.63 in 10.0 mi ENE 4.6 mph - N/A   Clear
11:53 PM 55.9 °F - 37.0 °F 49% 29.61 in 10.0 mi NE 6.9 mph - N/A   Clear